TimeCDT,TemperatureF,Dew PointF,Humidity,Sea Level PressureIn,VisibilityMPH,Wind Direction,Wind SpeedMPH,Gust SpeedMPH,PrecipitationIn,Events,Conditions,WindDirDegrees,DateUTC
12:52 AM,73.0,66.9,81,29.77,10.0,South,8.1,-,N/A,,Partly Cloudy,170,2013-06-26 05:52:00
1:52 AM,73.9,69.1,85,29.74,10.0,SSE,8.1,-,N/A,,Clear,150,2013-06-26 06:52:00
2:52 AM,73.9,69.1,85,29.71,10.0,SSE,12.7,-,N/A,,Partly Cloudy,160,2013-06-26 07:52:00
3:52 AM,73.9,70.0,87,29.71,10.0,South,10.4,-,N/A,,Clear,170,2013-06-26 08:52:00
4:29 AM,73.4,69.8,88,29.73,10.0,South,6.9,-,N/A,Thunderstorm,Clear,180,2013-06-26 09:29:00
4:44 AM,75.2,69.8,83,29.74,10.0,SSW,8.1,-,N/A,,Clear,200,2013-06-26 09:44:00
4:52 AM,75.0,70.0,84,29.72,10.0,South,8.1,-,N/A,Thunderstorm,Clear,190,2013-06-26 09:52:00
5:17 AM,71.6,64.4,78,29.77,5.0,NW,20.7,38.0,0.00,Rain-Thunderstorm,Heavy Rain,310,2013-06-26 10:17:00
5:28 AM,69.8,64.4,83,29.79,2.0,SW,18.4,29.9,0.15,Rain-Thunderstorm,Heavy Thunderstorms and Rain,220,2013-06-26 10:28:00
5:52 AM,68.0,64.9,90,29.73,10.0,East,10.4,-,0.30,Rain-Thunderstorm,Light Thunderstorms and Rain,80,2013-06-26 10:52:00
6:52 AM,68.0,64.9,90,29.74,6.0,Calm,Calm,-,0.06,Rain,Rain,0,2013-06-26 11:52:00
7:04 AM,68.0,64.4,88,29.75,5.0,WSW,8.1,-,0.02,Rain-Thunderstorm,Rain,250,2013-06-26 12:04:00
7:36 AM,68.0,64.4,88,29.75,6.0,SW,11.5,24.2,0.07,Rain,Rain,230,2013-06-26 12:36:00
7:52 AM,68.0,64.9,90,29.72,6.0,SSW,12.7,-,0.10,Rain,Rain,210,2013-06-26 12:52:00
8:26 AM,69.8,64.4,83,29.74,10.0,WSW,9.2,-,0.03,Rain,Light Rain,250,2013-06-26 13:26:00
8:52 AM,70.0,66.0,87,29.73,10.0,West,4.6,-,0.03,,Clear,260,2013-06-26 13:52:00
9:52 AM,72.0,68.0,87,29.75,10.0,Calm,Calm,-,N/A,,Mostly Cloudy,0,2013-06-26 14:52:00
10:52 AM,75.9,69.1,79,29.75,10.0,NNW,4.6,-,N/A,,Partly Cloudy,340,2013-06-26 15:52:00
11:52 AM,79.0,69.1,72,29.76,10.0,Variable,3.5,-,N/A,,Partly Cloudy,0,2013-06-26 16:52:00
12:52 PM,80.1,70.0,71,29.71,10.0,South,4.6,-,N/A,,Clear,180,2013-06-26 17:52:00
1:52 PM,82.9,71.1,67,29.75,10.0,Calm,Calm,-,N/A,,Mostly Cloudy,0,2013-06-26 18:52:00
2:34 PM,84.2,69.8,62,29.75,10.0,Calm,Calm,-,N/A,,Mostly Cloudy,0,2013-06-26 19:34:00
2:52 PM,84.9,71.1,63,29.74,10.0,Calm,Calm,-,N/A,,Mostly Cloudy,0,2013-06-26 19:52:00
3:52 PM,86.0,72.0,63,29.72,10.0,WSW,5.8,-,N/A,,Scattered Clouds,250,2013-06-26 20:52:00
4:52 PM,84.0,72.0,67,29.73,10.0,WNW,3.5,-,N/A,,Mostly Cloudy,290,2013-06-26 21:52:00
5:52 PM,84.0,72.0,67,29.73,10.0,WNW,5.8,-,N/A,,Clear,290,2013-06-26 22:52:00
6:52 PM,82.9,73.0,72,29.71,9.0,West,5.8,-,N/A,,Clear,280,2013-06-26 23:52:00
7:52 PM,81.0,73.9,79,29.72,9.0,WSW,4.6,-,N/A,,Clear,240,2013-06-27 00:52:00
8:52 PM,78.1,73.9,87,29.75,8.0,Calm,Calm,-,N/A,,Clear,0,2013-06-27 01:52:00
9:52 PM,75.9,73.0,91,29.75,7.0,SW,4.6,-,N/A,,Clear,220,2013-06-27 02:52:00
10:52 PM,75.9,73.0,91,29.76,8.0,Calm,Calm,-,N/A,,Clear,0,2013-06-27 03:52:00
11:52 PM,73.0,72.0,96,29.77,5.0,Calm,Calm,-,N/A,,Clear,0,2013-06-27 04:52:00